Regional Weather Roundup
Issued by NWS

Home | Current Version | Previous Version | Text Only | Print | Product List | Glossary Off
Versions: 1 2 3 4 5 6 7 8 9 10 11 12 13 14 15 16 17 18 19 20 21 22 23 24 25 26 27 28 29 30 31 32 33 34 35 36 37 38 39 40 41 42 43 44 45 46 47 48 49 50

000
ASUS43 KLMK 242210
RWRKY
KENTUCKY REGIONAL WEATHER ROUNDUP
NATIONAL WEATHER SERVICE LOUISVILLE KY
600 PM EDT FRI OCT 24 2014

NOTE "FAIR" INDICATES FEW OR NO CLOUDS BELOW 12,000 FEET
WITH NO SIGNIFICANT WEATHER AND/OR OBSTRUCTIONS TO VISIBILITY.

KYZ001>023-026-027-061>063-070>075-242300-
WESTERN AND SOUTH CENTRAL KENTUCKY

CITY           SKY/WX    TMP DP  RH WIND       PRES   REMARKS
PADUCAH        SUNNY     69  53  56 W6        30.05S
HENDERSON      MOSUNNY  N/A N/A N/A W6        30.04S
OWENSBORO      MOSUNNY   69  52  54 SW7       30.05S
HOPKINSVILLE   MOSUNNY   67  52  58 W7        30.06S
BOWLING GREEN  MOSUNNY   67  46  47 NW6       30.06S
GLASGOW        CLEAR     65  45  48 W5        30.06R
$$

KYZ024-025-028>034-038-045-046-053-242300-
NORTH CENTRAL KENTUCKY

CITY           SKY/WX    TMP DP  RH WIND       PRES   REMARKS
LOUISVILLE/SDF PTCLDY    64  46  52 SW12      30.05S
LOUISVILLE/LOU PTCLDY    64  46  52 W3        30.05F
FORT KNOX      CLEAR     64  47  54 W2        30.04S
$$

KYZ035>037-039>044-047>052-055>060-089>105-242300-
NORTHEAST KENTUCKY

CITY           SKY/WX    TMP DP  RH WIND       PRES   REMARKS
LEXINGTON      CLEAR     65  40  39 CALM      30.06R
COVINGTON      PTCLDY    64  38  38 SW5       30.04S
FRANKFORT      CLEAR     62  40  44 SW6       30.04F
$$

KYZ054-064>069-076>088-106>120-242300-
SOUTHEAST KENTUCKY

CITY           SKY/WX    TMP DP  RH WIND       PRES   REMARKS
JACKSON        CLEAR     62  39  42 CALM      30.06S
LONDON         CLEAR     65  41  41 W3        30.06R
SOMERSET       CLEAR     63  43  48 CALM      30.08R
MIDDLESBORO    CLEAR     64  41  43 NW5       30.05R
MONTICELLO     CLEAR     67  41  38 NW5       30.08R HAZE
$$




USA.gov is the U.S. government's official web portal to all federal, state and local government web resources and services.